Regional Weather Roundup
Issued by NWS

Home | Current Version | Previous Version | Graphics & Text | Print | Product List | Glossary On
Versions: 1 2 3 4 5 6 7 8 9 10 11 12 13 14 15 16 17 18 19 20 21 22 23 24 25 26 27 28 29 30 31 32 33 34 35 36 37 38 39 40 41 42 43 44 45 46 47 48 49 50
000
ASUS43 KDMX 221007
RWRIA

WEATHER ROUNDUP FOR IOWA
NATIONAL WEATHER SERVICE DES MOINES IA
400 AM CST SAT NOV 22 2014

NOTE: "FAIR" INDICATES FEW OR NO CLOUDS BELOW 12,000 FEET WITH NO
SIGNIFICANT WEATHER AND/OR OBSTRUCTIONS TO VISIBILITY.

* - THESE STATIONS ARE NOT NWS STATIONS...THUS NOT UNDER NWS
QUALITY CONTROL.  THEY ALSO DO NOT REPORT WEATHER SUCH
AS PRECIPITATION OR FOG.

IAZ001>003-012>014-020>022-031>034-043>046-221100-
   NORTHWEST IOWA

CITY           SKY/WX    TMP DP  RH WIND       PRES   REMARKS
CARROLL *      CLOUDY    36  36 100 SW8       29.90F FOG     WCI  29
CHEROKEE *     FOG       36  36 100 S10       29.86F VSB 3/4 WCI  28
DENISON *      FOG       36  36 100 SW9       29.88F VSB 3/4 WCI  29
LE MARS *      FOG       36  36 100 S7        29.85F VSB 3/4 WCI  30
ORANGE CITY *  FOG       36  34  93 S8        29.83F VSB 1/4 WCI  29
SHELDON *      FOG       34  34 100 S12G20    29.82F VSB 0   WCI  25
SIOUX CITY     CLOUDY    38  36  92 S12       29.87F FOG     WCI  30
SPENCER        FOG       35  34  96 SW12      29.85F VSB 1/2 WCI  27
STORM LAKE *   FOG       36  36 100 SW15G22   29.86F VSB 1/4 WCI  26
$$

IAZ055>058-069>071-079>083-090>094-221100-
   SOUTHWEST IOWA

CITY           SKY/WX    TMP DP  RH WIND       PRES   REMARKS
ATLANTIC *     FOG       37  37 100 S10       29.92F VSB 1/2 WCI  30
AUDUBON *      HAZE      37  32  81 S10       29.91F VSB 1   WCI  30
CLARINDA *     CLOUDY    39  39 100 S6        29.96F FOG     WCI  35
COUNCIL BLFS * CLOUDY    36  36 100 SW9       29.91F FOG     WCI  29
CRESTON *      FOG       37  37 100 S12       29.94F VSB 1/4 WCI  30
HARLAN  *      FOG       36  36 100 S9        29.94F VSB 1/4 WCI  29
LAMONI         FOG       40  40 100 S8        29.95F VSB 1/2 WCI  34
RED OAK *      FOG       37  37 100 S6        29.94F VSB 1/2 WCI  33
SHENANDOAH *   CLOUDY    39  39 100 SW6       29.96F FOG     WCI  35
$$

IAZ047>049-059>061-072>074-084-221100-
   CENTRAL IOWA

CITY           SKY/WX    TMP DP  RH WIND       PRES   REMARKS
AMES           CLOUDY    36  32  85 SE5       29.94F WCI  32
ANKENY *       CLOUDY    39  37  93 S5        29.95F
CHARITON *     FOG       41  41 100 SW6       29.96F VSB 1/2
DES MOINES     CLOUDY    39  36  89 S9        29.95F FOG     WCI  33
GRINNELL*      CLOUDY    36  34  93 S9        29.96F FOG     WCI  29
KNOXVILLE *    CLOUDY    39  37  93 S5        29.95F FOG
MARSHALLTOWN   CLOUDY    35  32  88 S6        29.94F WCI  30
PELLA *        CLOUDY    37  36  93 S5        29.98F FOG     WCI  34
PERRY *        CLOUDY    37  37 100 S7        29.93F FOG     WCI  32
$$

IAZ004>006-015-016-023>025-035-036-221100-
   NORTH CENTRAL IOWA

CITY           SKY/WX    TMP DP  RH WIND       PRES   REMARKS
ALGONA *       FOG       34  34 100 S15       29.87F VSB 1/4 WCI  24
CLARION *      FOG       34  34 100 S10       29.89F VSB 1/2 WCI  26
ESTHERVILLE    FOG       34  34 100 S14       29.83F VSB 1/4 WCI  25
FORT DODGE *   CLOUDY    36  34  93 S9G18     29.89F WCI  29
MASON CITY     FOG       33  33 100 S9        29.90F VSB 3/4 WCI  25
FOREST CITY *  FOG       34  34 100 S10       29.88F VSB 3/4 WCI  26
IOWA FALLS *   CLOUDY    34  32  93 S10       29.92F FOG     WCI  26
$$

IAZ007>011-017>019-026>030-037>042-050>054-066-221100-
   NORTHEAST IOWA

CITY           SKY/WX    TMP DP  RH WIND       PRES   REMARKS
CEDAR RAPIDS   CLOUDY    33  33 100 S9        29.98F FOG     WCI  25
CHARLES CITY * CLOUDY    34  32  93 S12       29.91F FOG     WCI  25
CLINTON *      CLOUDY    34  30  86 S7        30.05F WCI  28
DECORAH *      CLOUDY    32  30  93 S7G16     29.91F FOG     WCI  26
DUBUQUE        FOG       32  32 100 S14       29.97F VSB 3/4 WCI  22
MONTICELLO *   CLOUDY    34  34 100 S10       29.99F FOG     WCI  26
OELWEIN *      FOG       32  32 100 S14       29.95F VSB 3/4 WCI  22
WATERLOO       CLOUDY    34  32  92 S7        29.95F FOG     WCI  28
$$

IAZ064-065-067-068-078-221100-
   EAST CENTRAL IOWA

CITY           SKY/WX    TMP DP  RH WIND       PRES   REMARKS
DAVENPORT      CLOUDY    35  32  88 S8        30.03F FOG     WCI  29
IOWA CITY      CLOUDY    34  33  96 SE5       30.02F FOG     WCI  30
MT. PLEASANT * CLOUDY    37  36  93 S13       30.02F WCI  29
MUSCATINE *    CLOUDY    37  34  87 SE5       30.02F WCI  34
QUAD CITIES    CLOUDY    37  34  89 S5        30.03F WCI  33
$$

IAZ062-063-075>077-085>089-095>099-221100-
   SOUTHEAST IOWA

CITY           SKY/WX    TMP DP  RH WIND       PRES   REMARKS
BURLINGTON     CLOUDY    40  35  83 S13       30.03F WCI  32
FAIRFIELD *    CLOUDY    39  36  87 S12G17    30.00F WCI  32
FORT MADISON * CLOUDY    43  37  81 S10       30.03F
KEOKUK *       CLOUDY    43  39  87 S13G18    30.03F
OSKALOOSA *    CLOUDY    36  34  93 S8        29.98F FOG     WCI  29
CENTERVILLE *  CLOUDY    43  43 100 S9        29.99F
OTTUMWA        CLOUDY    39  36  89 S10       29.98F WCI  32
WASHINGTON *   CLOUDY    37  37 100 S9        30.00F WCI  31
$$

ABBREVIATIONS USED IN REMARKS
   TC - TEMPERATURES IN CELSIUS
  WCI - WIND CHILL INDEX
   HX - HEAT INDEX
  VSB - VISIBILITY
$$



USA.gov is the U.S. government's official web portal to all federal, state and local government web resources and services.